Flag for U.S.A. Weather past 2 weeks in Carson City, Nevada, U.S.A.

Now
71 °F

Partly cloudy.


Feels Like: 77 °F
Forecast: 54 / 86 °F
Wind: No wind

Location: Reno Tahoe International Airport

Current Time: Aug 3, 2015 at 12:40:14 AM

Latest Report: Aug 2, 2015 at 11:55 PM


Visibility: 10 mi

Pressure: 29.89 "Hg (25.34 "Hg at 1425m altitude)

Humidity: 49%

Dew point: 51 °F

Location of Carson CityLocation

Historic Weather in Carson City — Graph

°F

Carson City temperature yesterday

Maximum temperature yesterday: 84 °F (at 12:55 PM)
Minimum temperature yesterday: 68 °F (at 5:55 AM)
Average temperature yesterday: 77 °F

Past Weeks' High & Low Weather Summary

 TemperatureHumidityPressure
High98 °F (Jul 30, 12:55 PM)73% (Jul 22, 3:55 AM)30.11 "Hg (Jul 22, 3:55 AM)
Low56 °F (Jul 28, 5:55 AM)7% (Jul 30, 12:55 PM)29.70 "Hg (Jul 22, 2:55 PM)
Average76 °F29%29.94 "Hg
* Reported Jul 18 10:55 PM — Aug 2 10:55 PM, Carson City, Weather by CustomWeather, © 2015

Note: Actual official high and low records may vary slightly from our data, if they occured in-between our weather recording intervals... More about our weather records

Advertising

Carson City weather history for previous 24 hours

 ConditionsComfort  
Time TempWeatherWind HumidityBarometerVisibility
10:55 PM
Sun, Aug 2
73 °FPassing clouds.12 mph44%29.89 "Hg10 mi
9:55 PM74 °FPassing clouds.7 mph43%29.89 "Hg10 mi
8:55 PM77 °FBroken clouds.7 mph39%29.86 "Hg10 mi
7:55 PM79 °FBroken clouds.8 mph38%29.86 "Hg10 mi
6:55 PM82 °FBroken clouds.8 mph31%29.85 "Hg10 mi
5:55 PM82 °FBroken clouds.12 mph32%29.86 "Hg10 mi
4:55 PM82 °FBroken clouds.13 mph31%29.87 "Hg10 mi
3:55 PM84 °FPartly sunny.17 mph30%29.87 "Hg10 mi
2:55 PM80 °FPartly sunny.14 mph39%29.90 "Hg10 mi
1:55 PM80 °FBroken clouds.14 mph36%29.89 "Hg10 mi
12:55 PM84 °FMostly cloudy.6 mph26%29.89 "Hg10 mi
11:55 AM83 °FMostly cloudy.3 mph30%29.89 "Hg10 mi
10:55 AM80 °FMostly cloudy.No wind35%29.91 "Hg10 mi
9:55 AM77 °FCloudy.No wind40%29.91 "Hg10 mi
8:55 AM74 °FMostly cloudy.5 mph45%29.93 "Hg10 mi
7:55 AM73 °FMostly cloudy.5 mph44%29.91 "Hg10 mi
6:55 AM70 °FOvercast.No wind47%29.90 "Hg10 mi
5:55 AM68 °FOvercast.No wind55%29.89 "Hg10 mi
4:55 AM70 °FMostly cloudy.No wind49%29.88 "Hg10 mi
3:55 AM73 °FPartly cloudy.3 mph40%29.86 "Hg10 mi
2:55 AM73 °FPartly cloudy.No wind43%29.87 "Hg10 mi
1:55 AM77 °FPartly cloudy.7 mph31%29.87 "Hg10 mi
12:55 AM79 °FPassing clouds.6 mph35%29.87 "Hg10 mi
Weather by CustomWeather, © 2015

See weather overviewHow to use our weather pages